Location: Buch
(49.7331°N, 12.1098°E)
Time: 00:26:07
(UTC+00:00)

Cosmos 1544 - Pass Details

Date: 12 May 2021
Orbit: 471 x 487 km, 82.5° (Epoch: 23 June)

Event Time Altitude Azimuth Distance (km) Brightness Sun altitude
Rises 21:04:22 0° 351° (N) 2,539 8.0 -16.6°
Reaches altitude 10° 21:06:29 10° 354° (N) 1,658 6.8 -16.8°
Maximum altitude 21:10:06 72° 79° (ENE) 509 3.0 -17.1°
Enters shadow 21:11:08 44° 151° (SSE) 679 3.3 -17.2°
